Fremont, MI

6:12 PM EST on November 12, 2019 (GMT -0500)
Fremont

Weather History for KFFX - September, 2019

Change the Weather History Date:

Sunday, September 22, 2019

  Actual Average (WUND) Record (WUND)
Temperature  
Mean Temperature 70 °F -  
Max Temperature 73 °F - - (-1)
Min Temperature 66 °F - - (-1)
Cooling Degree Days 4    
Growing Degree Days 20 (Base 50)    
Moisture  
Dew Point 67 °F    
Average Humidity 90    
Maximum Humidity 97    
Minimum Humidity 59    
Precipitation  
Precipitation 0.00 in - - ()
Sea Level Pressure  
Sea Level Pressure 29.88 in    
Wind  
Wind Speed 11 mph ()    
Max Wind Speed 18 mph    
Max Gust Speed 25 mph    
Visibility 9.3 miles    
Events Rain    
Averages and records for this station are not official NWS values.
T = Trace of Precipitation, MM = Missing Value Source: Averaged Metar Reports

Daily Weather History Graph

Daily Weather History Graph

Search for Another Location

Airport or City:

Astronomy

Sep. 22, 2019 Rise Set
Actual Time 7:30 AM EDT 7:41 PM EDT
Civil Twilight 7:02 AM EDT 8:10 PM EDT
Nautical Twilight 6:28 AM EDT 8:43 PM EDT
Astronomical Twilight 5:54 AM EDT 9:17 PM EDT
Moon 12:09 AM EDT (9/22) 3:47 PM EDT (9/22)
Length of Visible Light 13h 07m
Length of Day
12h 10m
Last Quarter, 44% of the Moon is Illuminated
Sep 22
Last Quarter
Sep 28
New
Oct 5
First Quarter
Oct 13
Full
Oct 21
Last Quarter

Hourly Weather History & Observations

Time (EDT) Temp. Dew Point Humidity Pressure Visibility Wind Dir Wind Speed Gust Speed Precip Events Conditions
12:15 AM 72.1 °F 68.0 °F 87% 30.00 in 10.0 mi SW 15.0 mph 21.9 mph N/A   Overcast
12:16 AM 72.1 °F 68.0 °F 87% 30.00 in 10.0 mi SW 16.1 mph 21.9 mph N/A   Overcast
12:35 AM 72.3 °F 68.0 °F 86% 30.00 in 10.0 mi SW 15.0 mph 24.2 mph N/A   Overcast
12:36 AM 72.3 °F 68.0 °F 86% 30.00 in 10.0 mi SW 15.0 mph 24.2 mph N/A Rain Light Rain
12:59 AM 71.6 °F 68.4 °F 89% 29.99 in 10.0 mi SW 9.2 mph 20.7 mph N/A   Light Drizzle
1:17 AM 71.1 °F 68.5 °F 92% 29.99 in 10.0 mi SW 13.8 mph 18.4 mph N/A Rain Light Rain
1:35 AM 71.1 °F 68.7 °F 92% 29.99 in 10.0 mi SW 13.8 mph 20.7 mph N/A   Light Drizzle
1:55 AM 70.9 °F 68.9 °F 93% 29.99 in 10.0 mi SW 11.5 mph 19.6 mph N/A   Overcast
1:56 AM 70.9 °F 68.9 °F 93% 29.99 in 10.0 mi SW 10.4 mph 19.6 mph N/A   Overcast
2:15 AM 71.1 °F 68.9 °F 93% 29.99 in 10.0 mi SW 11.5 mph 18.4 mph N/A   Overcast
2:20 AM 71.2 °F 68.9 °F 92% 29.98 in 10.0 mi SW 10.4 mph 16.1 mph N/A   Overcast
2:38 AM 71.2 °F 68.9 °F 92% 29.98 in 10.0 mi SW 11.5 mph - N/A   Overcast
2:56 AM 71.4 °F 68.9 °F 92% 29.98 in 10.0 mi SSW 10.4 mph - N/A   Overcast
3:15 AM 71.4 °F 68.9 °F 92% 29.97 in 10.0 mi SW 12.7 mph 17.3 mph N/A   Overcast
3:16 AM 71.4 °F 68.9 °F 92% 29.97 in 10.0 mi SW 13.8 mph 17.3 mph N/A   Overcast
3:35 AM 71.1 °F 68.9 °F 93% 29.97 in 10.0 mi SW 11.5 mph - N/A Rain Light Rain
3:59 AM 70.7 °F 69.1 °F 95% 29.96 in 5.0 mi SW 6.9 mph - N/A Rain Rain
4:17 AM 70.7 °F 69.1 °F 95% 29.96 in 10.0 mi SW 9.2 mph - N/A   Overcast
4:35 AM 70.2 °F 68.5 °F 95% 29.96 in 10.0 mi SSW 10.4 mph - N/A   Overcast
4:36 AM 70.2 °F 68.5 °F 95% 29.96 in 10.0 mi SW 10.4 mph - N/A   Overcast
4:55 AM 70.2 °F 68.2 °F 93% 29.96 in 10.0 mi SSW 10.4 mph - N/A   Overcast
5:15 AM 70.0 °F 68.2 °F 94% 29.95 in 10.0 mi SW 10.4 mph - N/A   Overcast
5:38 AM 69.8 °F 68.2 °F 95% 29.95 in 10.0 mi SSW 8.1 mph 16.1 mph N/A   Drizzle
5:56 AM 69.8 °F 68.2 °F 95% 29.95 in 10.0 mi SSW 9.2 mph - N/A   Overcast
6:15 AM 70.2 °F 68.4 °F 94% 29.95 in 10.0 mi SSW 6.9 mph - N/A   Overcast
6:35 AM 70.2 °F 68.2 °F 93% 29.94 in 10.0 mi SSW 8.1 mph - N/A   Overcast
6:59 AM 70.7 °F 68.4 °F 92% 29.94 in 10.0 mi SW 12.7 mph 16.1 mph N/A   Overcast
7:16 AM 71.1 °F 68.4 °F 91% 29.94 in 10.0 mi SSW 10.4 mph - N/A   Overcast
7:35 AM 70.7 °F 68.4 °F 92% 29.93 in 10.0 mi SSW 10.4 mph - N/A   Overcast
7:36 AM 70.7 °F 68.4 °F 92% 29.93 in 10.0 mi SSW 10.4 mph - N/A   Overcast
7:55 AM 70.9 °F 68.5 °F 92% 29.93 in 10.0 mi SSW 11.5 mph 17.3 mph N/A   Overcast
7:56 AM 70.9 °F 68.5 °F 92% 29.93 in 10.0 mi SSW 9.2 mph 17.3 mph N/A   Overcast
8:15 AM 71.1 °F 68.7 °F 92% 29.92 in 10.0 mi SSW 11.5 mph 19.6 mph N/A   Overcast
8:38 AM 71.1 °F 68.5 °F 92% 29.92 in 10.0 mi SSW 13.8 mph 19.6 mph N/A   Overcast
8:56 AM 70.9 °F 68.9 °F 93% 29.92 in 7.0 mi SSW 13.8 mph 21.9 mph N/A   Light Drizzle
9:15 AM 70.7 °F 68.9 °F 94% 29.91 in 10.0 mi SSW 16.1 mph 23.0 mph N/A Rain Rain
9:16 AM 70.7 °F 68.9 °F 94% 29.91 in 10.0 mi SSW 16.1 mph 23.0 mph N/A Rain Rain
9:36 AM 70.2 °F 68.9 °F 96% 29.91 in 5.0 mi SW 13.8 mph 21.9 mph N/A Rain Heavy Rain
9:59 AM 69.8 °F 68.5 °F 96% 29.92 in 4.0 mi SSW 12.7 mph 20.7 mph N/A Rain Rain
10:17 AM 69.8 °F 68.4 °F 95% 29.91 in 7.0 mi SSW 16.1 mph 21.9 mph N/A Rain Light Rain
10:35 AM 69.8 °F 68.0 °F 94% 29.90 in 10.0 mi SSW 17.3 mph 21.9 mph N/A Rain Rain
10:55 AM 70.2 °F 68.5 °F 95% 29.89 in 7.0 mi SSW 12.7 mph - N/A   Drizzle
11:15 AM 70.7 °F 68.9 °F 94% 29.89 in 10.0 mi SSW 15.0 mph 19.6 mph N/A   Drizzle
11:38 AM 70.2 °F 68.2 °F 93% 29.88 in 7.0 mi SSW 10.4 mph 23.0 mph N/A   Drizzle
11:56 AM 70.3 °F 68.2 °F 93% 29.88 in 10.0 mi SSW 11.5 mph 16.1 mph N/A   Drizzle
12:15 PM 70.7 °F 67.8 °F 91% 29.88 in 10.0 mi SSW 11.5 mph 19.6 mph N/A Rain Light Rain
12:16 PM 70.7 °F 67.8 °F 91% 29.88 in 10.0 mi SSW 12.7 mph 19.6 mph N/A Rain Light Rain
12:35 PM 70.7 °F 66.7 °F 87% 29.87 in 10.0 mi SSW 13.8 mph 17.3 mph N/A   Overcast
12:36 PM 70.7 °F 66.6 °F 87% 29.87 in 10.0 mi SSW 11.5 mph 18.4 mph N/A   Overcast
12:59 PM 70.2 °F 66.2 °F 87% 29.86 in 10.0 mi South 9.2 mph 17.3 mph N/A Rain Light Rain
1:17 PM 70.7 °F 64.9 °F 82% 29.86 in 10.0 mi SSW 12.7 mph - N/A   Overcast
1:35 PM 70.9 °F 61.7 °F 73% 29.85 in 7.0 mi SSW 13.8 mph 19.6 mph N/A Rain Rain
1:36 PM 70.9 °F 62.1 °F 74% 29.85 in 7.0 mi SW 12.7 mph 19.6 mph N/A Rain Rain
1:55 PM 71.1 °F 61.2 °F 71% 29.84 in 10.0 mi SSW 12.7 mph 20.7 mph N/A   Overcast
1:56 PM 71.1 °F 61.0 °F 70% 29.84 in 10.0 mi SW 13.8 mph 20.7 mph N/A   Overcast
2:15 PM 72.9 °F 58.8 °F 61% 29.83 in 10.0 mi SW 18.4 mph 24.2 mph N/A   Overcast
2:20 PM 72.9 °F 58.5 °F 60% 29.83 in 10.0 mi SSW 15.0 mph 24.2 mph N/A   Overcast
2:38 PM 73.4 °F 58.5 °F 59% 29.83 in 10.0 mi SSW 16.1 mph 25.3 mph N/A   Overcast
2:56 PM 73.4 °F 58.3 °F 59% 29.83 in 10.0 mi SW 16.1 mph 23.0 mph N/A   Overcast
3:15 PM 73.0 °F 59.0 °F 61% 29.83 in 10.0 mi SSW 16.1 mph 25.3 mph N/A Rain Rain
3:35 PM 71.2 °F 63.9 °F 77% 29.83 in 10.0 mi SW 16.1 mph 25.3 mph N/A Rain Rain
3:36 PM 71.1 °F 64.2 °F 79% 29.84 in 10.0 mi SW 17.3 mph 25.3 mph N/A Rain Rain
3:59 PM 69.8 °F 67.6 °F 93% 29.83 in 7.0 mi SSW 15.0 mph 23.0 mph N/A Rain Rain
4:17 PM 70.2 °F 68.0 °F 93% 29.83 in 7.0 mi SSW 12.7 mph 17.3 mph N/A Rain Rain
4:35 PM 69.8 °F 68.0 °F 94% 29.83 in 10.0 mi SW 13.8 mph 20.7 mph N/A   Drizzle
4:55 PM 69.8 °F 68.0 °F 94% 29.82 in 10.0 mi SSW 12.7 mph 17.3 mph N/A   Drizzle
5:15 PM 69.8 °F 68.0 °F 94% 29.82 in 10.0 mi SSW 12.7 mph - N/A   Drizzle
5:20 PM 69.8 °F 68.0 °F 94% 29.82 in 10.0 mi SSW 11.5 mph 17.3 mph N/A   Drizzle
5:38 PM 69.8 °F 67.8 °F 93% 29.81 in 10.0 mi SW 15.0 mph 19.6 mph N/A   Light Drizzle
5:56 PM 69.8 °F 68.0 °F 94% 29.81 in 10.0 mi SW 12.7 mph 18.4 mph N/A   Light Drizzle
6:15 PM 69.8 °F 68.0 °F 94% 29.81 in 7.0 mi SW 9.2 mph - N/A Rain Rain
6:16 PM 69.8 °F 68.0 °F 94% 29.81 in 7.0 mi SW 8.1 mph - N/A   Drizzle
6:35 PM 69.6 °F 67.8 °F 94% 29.81 in 10.0 mi SW 11.5 mph 20.7 mph N/A   Overcast
6:59 PM 69.3 °F 67.6 °F 95% 29.81 in 10.0 mi SW 10.4 mph - N/A   Drizzle
7:17 PM 69.1 °F 67.6 °F 95% 29.81 in 10.0 mi SW 8.1 mph - N/A   Drizzle
7:35 PM 69.1 °F 67.5 °F 95% 29.80 in 10.0 mi SSW 10.4 mph 17.3 mph N/A Rain Light Rain
7:36 PM 69.1 °F 67.6 °F 95% 29.80 in 10.0 mi SW 10.4 mph - N/A Rain Light Rain
7:55 PM 68.9 °F 67.5 °F 95% 29.80 in 10.0 mi SSW 6.9 mph - N/A Rain Light Rain
7:56 PM 68.9 °F 67.5 °F 95% 29.80 in 10.0 mi SW 6.9 mph - N/A Rain Light Rain
8:15 PM 68.9 °F 67.6 °F 96% 29.79 in 7.0 mi SW 4.6 mph - N/A Rain Rain
8:37 PM 68.7 °F 67.5 °F 96% 29.79 in 5.0 mi SSW 4.6 mph - N/A Rain Rain
8:56 PM 68.9 °F 67.6 °F 96% 29.78 in 10.0 mi SW 9.2 mph - N/A Rain Rain
9:15 PM 68.9 °F 67.6 °F 96% 29.78 in 7.0 mi SW 5.8 mph - N/A Rain Rain
9:16 PM 68.9 °F 67.6 °F 96% 29.78 in 7.0 mi SW 6.9 mph - N/A Rain Rain
9:35 PM 68.9 °F 67.6 °F 96% 29.79 in 10.0 mi WSW 6.9 mph - N/A   Overcast
9:59 PM 68.9 °F 67.6 °F 96% 29.79 in 10.0 mi WSW 8.1 mph - N/A Rain Light Rain
10:17 PM 68.4 °F 67.3 °F 96% 29.79 in 5.0 mi NW 10.4 mph - N/A   Heavy Drizzle
10:35 PM 67.1 °F 66.2 °F 97% 29.79 in 7.0 mi NW 6.9 mph - N/A Rain Rain
10:55 PM 67.1 °F 65.8 °F 96% 29.79 in 10.0 mi WNW 6.9 mph - N/A   Overcast
10:56 PM 67.1 °F 65.8 °F 96% 29.79 in 10.0 mi WNW 5.8 mph - N/A   Overcast
11:15 PM 66.9 °F 65.8 °F 96% 29.78 in 10.0 mi West 4.6 mph - N/A   Overcast
11:38 PM 66.4 °F 65.5 °F 97% 29.78 in 10.0 mi WNW 4.6 mph - N/A   Overcast
11:56 PM 66.6 °F 65.5 °F 96% 29.79 in 10.0 mi WNW 6.9 mph - N/A   Overcast